Location: ???????
(55.4362°N, 38.1183°E)
Time: 08:04:51
(UTC+00:00)

Nauka - Pass Details

Date: 28 September 2021
Orbit: 417 x 423 km, 51.6° (Epoch: 24 October)

Event Time Altitude Azimuth Distance (km) Brightness Sun altitude
Rises 17:27:13 0° 273° (W) 2,368 ? -19.6°
Reaches altitude 10° 17:29:32 10° 260° (W) 1,503 ? -19.9°
Enters shadow 17:32:12 25° 208° (SSW) 880 ? -20.3°
